Simultaneous Nadir Overpasses (SNOs) Predictions

Prediction of SNOs between AQUA and METOP-B Satellite Orbit:

Table of predicted SNOs for the next 14.0 days since TLE Epoch: 11/18/2016
Index Date (AQUA) Time (AQUA) Lat,Lon (AQUA) SZA (AQUA ) Date (METOP-B) Time (METOP-B) Lat,Lon (METOP-B) SZA (METOP-B ) Distance(km) Time Diff (sec)
1 11/19/2016 20:45:35 73.65,-136.92 93.27 11/19/2016 20:44:26 73.66,-136.90 93.28 1.21 69
2 11/19/2016 21:35:02 -73.71, 30.59 86.66 11/19/2016 21:35:07 -73.69, 30.51 86.68 3.29 5
3 11/19/2016 22:24:32 73.85,-162.08 93.49 11/19/2016 22:25:44 73.84,-161.81 93.47 8.45 72
4 11/22/2016 16:19:51 73.64, -70.46 93.87 11/22/2016 16:18:50 73.63, -70.55 93.87 2.87 61
5 11/22/2016 17:09:19 -73.75, 96.94 86.01 11/22/2016 17:09:30 -73.72, 96.99 86.04 3.18 11
6 11/22/2016 17:58:53 74.10, -96.21 94.36 11/22/2016 18:00:02 74.11, -94.74 94.36 44.72 69
7 11/25/2016 11:54:06 73.64, -4.02 94.44 11/25/2016 11:53:12 73.66, -4.09 94.46 2.83 54
8 11/25/2016 12:43:34 -73.74, 163.39 85.45 11/25/2016 12:43:52 -73.75, 163.46 85.45 2.35 18
9 11/25/2016 13:33:13 74.36, -30.38 95.20 11/25/2016 13:34:19 74.38, -27.65 95.18 81.62 66
10 11/28/2016 07:28:22 73.65, 62.39 94.96 11/28/2016 07:27:35 73.68, 62.36 94.99 3.05 47
11 11/28/2016 08:17:50 -73.75,-130.19 84.93 11/28/2016 08:18:16 -73.73,-130.19 84.96 2.50 26
12 12/01/2016 03:02:38 73.67, 128.78 95.45 12/01/2016 03:01:58 73.69, 128.81 95.47 2.68 40
13 12/01/2016 03:52:06 -73.77, -63.79
